Probability
4 7 9 8 7 6 5 4 5 4 2 1 0 0 0 0 0 0 0 0 0 0 0 0 0 0 0 0 0 0 0 0 0 0 0 0 0 0 0 0 0 0 0
6 9 10 9 8 9 9 8 7 5 3 2 1 0 0 0 0 0 0 0 0 0 0 0 0 0 0 0 0 0 0 0 0 0 0 0 0 0 0 0 0 0 0
11 12 13 14 13 12 13 12 10 6 4 3 2 1 0 0 0 0 0 0 0 0 0 0 0 0 0 0 0 0 0 0 0 0 0 0 0 0 0 0 0 0 0
15 15 16 21 20 15 14 13 12 8 4 2 2 2 1 0 0 0 0 0 0 0 0 0 0 0 0 0 0 0 0 0 0 0 0 0 0 0 0 0 0 0 0
14 15 19 25 25 19 15 13 11 7 2 1 2 3 3 1 0 0 0 0 0 0 0 0 0 0 0 0 0 0 0 0 0 0 0 0 0 0 0 0 0 0 0
13 15 20 25 26 21 16 12 9 6 2 1 2 4 4 2 1 0 0 0 0 0 0 0 0 0 0 0 0 0 0 0 0 0 0 0 0 0 0 0 0 0 0
14 14 18 23 25 20 15 10 7 5 4 3 2 3 3 3 2 1 0 0 0 0 0 0 0 0 0 0 0 0 0 0 0 0 0 0 0 0 0 0 0 0 0
13 13 14 18 20 17 13 10 7 6 6 5 4 3 3 2 2 2 1 0 0 0 0 0 0 0 0 0 0 0 0 0 0 0 0 0 0 0 0 0 0 0 0
12 10 9 10 13 13 12 10 7 6 7 6 6 4 3 3 3 3 3 1 1 0 0 0 0 0 0 0 0 0 0 0 0 0 0 0 0 0 0 0 0 0 0
10 7 5 5 7 10 10 7 5 5 5 5 5 3 3 3 3 3 2 2 2 1 0 0 0 0 0 0 0 0 0 0 0 0 0 0 0 0 0 0 0 0 0
6 5 3 3 4 7 7 4 2 2 2 3 2 1 1 3 3 2 1 1 2 1 0 0 0 0 0 0 0 0 0 0 0 0 0 0 0 0 0 0 0 0 0
2 3 3 2 3 5 6 5 4 3 3 2 1 0 1 2 2 1 0 0 1 1 0 0 0 0 0 0 0 0 0 0 0 0 0 0 0 0 0 0 0 0 0
1 2 2 2 2 4 7 8 8 8 6 3 1 1 1 1 1 1 0 0 0 0 0 0 0 0 0 0 0 0 0 0 0 0 0 0 0 0 0 0 0 0 0
0 1 1 1 1 3 5 8 9 10 9 5 2 2 2 2 2 2 2 2 1 1 1 0 0 0 0 0 0 0 0 0 0 0 0 0 0 0 0 0 0 0 0
0 0 0 0 0 2 4 7 7 8 8 6 3 3 4 4 5 5 5 5 5 3 2 1 0 0 0 0 0 0 0 0 0 0 0 0 0 0 0 0 0 0 0
0 0 0 0 0 1 3 6 7 6 6 6 5 4 5 6 7 8 7 7 7 5 3 2 1 0 0 0 0 0 0 0 0 0 0 0 0 0 0 0 0 0 0
0 0 0 0 0 0 2 5 7 6 5 7 6 5 5 7 8 9 8 7 8 7 5 3 2 1 0 0 0 0 0 0 0 0 0 0 0 0 0 0 0 0 0
0 0 0 0 0 0 1 3 6 6 5 6 7 7 7 8 10 9 8 7 7 7 6 4 2 1 0 0 0 0 0 0 0 0 0 0 0 0 0 0 0 0 0
1 0 0 0 0 0 0 2 5 5 4 5 7 8 8 9 10 10 9 8 7 6 6 4 2 1 0 0 0 0 0 0 0 0 0 0 0 0 0 0 0 0 0
1 0 0 0 0 0 0 1 3 3 3 4 7 9 9 9 10 11 10 9 8 6 6 5 2 0 0 0 0 0 0 0 0 0 0 0 0 0 0 0 0 0 0
1 0 0 0 0 0 0 0 1 2 3 4 6 8 9 9 9 11 11 10 9 8 6 5 3 1 0 0 0 0 0 0 0 0 0 0 0 0 0 0 0 0 0
0 0 0 0 0 0 0 0 1 2 3 4 6 8 9 8 8 9 10 10 10 9 7 5 3 2 1 0 0 0 0 0 0 0 0 0 0 0 0 0 0 0 0
0 0 0 0 1 1 0 0 0 1 3 4 6 7 9 9 7 7 8 9 8 8 7 4 3 3 2 2 1 1 0 0 0 0 0 0 0 0 0 0 0 0 0
0 0 0 1 1 1 0 0 0 1 2 3 5 7 8 9 7 7 7 7 5 5 5 4 3 3 3 2 2 1 0 0 0 0 0 0 0 0 0 0 0 0 0
0 0 1 1 0 0 0 0 0 0 1 2 3 5 7 8 7 6 6 6 4 3 3 3 3 2 2 2 2 1 0 0 0 0 0 0 0 0 0 0 0 0 0
0 0 1 0 0 0 0 0 0 0 0 1 3 4 6 7 7 6 6 6 4 3 2 3 2 1 1 2 1 1 0 0 0 0 0 0 0 0 0 0 0 0 0
Wind_Speed
4 7 10 9 9 10 10 11 11 11 11 11 12 11 11 10 10 10 10 10 9 9 10 10 10 10 10 11 11 11 11 12 12 12 12 12 11 11 11 10 11 9 13
4 8 10 9 9 9 9 10 10 10 10 11 11 11 11 10 10 10 9 9 9 9 9 10 9 9 10 10 11 10 10 10 10 10 10 9 9 11 13 14 12 8 12
5 8 8 9 8 8 8 9 9 10 10 11 11 11 11 10 10 9 9 9 9 9 9 9 9 9 9 10 10 9 8 7 6 4 5 5 7 11 11 11 11 11 11
4 6 7 8 8 8 8 8 9 10 10 10 10 11 11 10 10 9 9 9 9 8 8 9 9 9 9 9 9 8 6 3 1 1 1 5 5 9 10 10 10 10 10
4 5 7 9 7 7 7 8 8 9 10 10 10 10 10 10 10 9 9 9 8 8 8 8 9 9 9 9 8 6 4 1 3 3 3 6 5 8 9 8 8 8 9
4 5 7 8 7 6 6 7 8 9 9 10 10 10 10 10 10 9 8 8 8 8 8 9 10 10 9 8 7 5 2 2 5 1 3 5 5 7 8 7 7 7 7
4 3 5 7 7 6 6 6 7 8 8 9 10 10 10 10 10 9 8 8 8 8 9 10 10 10 9 8 6 4 2 4 4 1 4 5 5 7 6 6 5 5 5
3 3 4 5 6 6 6 6 6 7 8 9 10 10 10 10 9 9 9 9 9 9 10 10 10 9 8 7 6 4 2 5 3 1 4 5 7 6 5 4 4 4 4
3 2 1 2 4 5 6 7 6 6 7 8 9 9 9 9 9 10 10 10 10 10 10 10 9 9 8 7 6 4 3 5 4 1 4 4 6 5 4 3 2 2 2
3 2 1 1 2 3 4 6 7 7 7 7 8 9 9 9 9 10 9 10 10 10 10 10 9 9 8 7 6 4 4 5 4 2 2 4 6 5 3 2 1 1 1
3 2 1 1 1 2 3 5 6 7 7 7 7 9 8 6 6 7 10 10 11 11 10 10 9 9 7 6 6 6 4 3 4 1 3 7 6 4 3 2 2 1 1
3 3 2 1 1 2 3 3 3 5 5 6 5 7 6 6 5 7 10 12 11 11 11 11 10 9 6 4 5 6 3 5 3 2 4 8 6 4 4 3 3 3 2
4 3 3 2 2 2 2 2 2 2 3 5 6 7 6 5 4 4 4 6 7 8 6 7 7 5 5 4 4 5 5 4 2 2 4 8 7 5 5 4 4 4 4
4 4 3 3 3 3 2 2 2 2 2 3 5 6 5 4 4 4 4 5 5 4 5 5 4 6 6 5 6 6 5 3 2 2 4 8 7 6 5 5 5 6 5
4 4 4 3 4 3 3 2 3 3 3 3 3 4 5 4 4 5 5 5 5 5 5 5 5 6 6 5 5 5 5 4 3 3 4 8 7 6 6 6 7 7 6
5 4 4 4 4 4 3 3 3 3 3 3 3 4 5 4 4 5 5 5 5 5 5 5 6 5 4 3 3 3 4 4 3 3 4 5 8 7 7 7 7 7 7
6 5 5 5 4 4 4 4 3 3 3 3 3 4 5 5 5 5 5 5 5 5 5 4 5 4 3 3 3 3 3 3 3 3 4 4 5 7 8 8 8 8 7
5 5 5 6 5 4 4 4 3 3 3 3 3 3 5 5 6 5 4 5 5 5 5 4 3 3 3 3 3 2 2 2 3 3 3 3 4 4 6 8 8 8 8
5 5 6 5 5 5 4 3 3 3 3 3 3 2 3 5 5 4 4 4 5 4 4 4 3 3 3 3 3 2 2 3 3 3 3 3 3 4 4 6 8 8 8
5 5 6 6 5 4 3 2 2 3 3 3 3 3 4 4 5 4 4 4 5 4 4 4 4 3 3 3 3 3 3 3 3 3 4 3 3 4 4 4 4 6 9
4 5 5 5 4 3 3 2 3 3 2 2 3 4 4 4 4 4 4 4 4 5 5 5 4 4 3 2 2 1 2 4 4 4 3 3 4 4 4 4 4 3 4
5 5 5 4 4 4 3 2 2 2 2 2 2 2 3 4 4 4 4 4 4 4 5 5 4 3 3 3 3 2 2 3 4 4 3 3 4 3 4 4 4 4 4
6 5 5 4 3 3 3 2 1 1 1 1 1 1 2 2 3 3 4 4 3 4 4 5 5 5 4 3 3 3 3 4 2 3 4 4 3 3 3 3 5 5 4
7 6 4 3 2 2 1 2 3 3 2 2 1 1 1 1 1 1 2 3 3 3 3 4 4 4 4 4 2 2 2 2 2 2 2 3 4 4 4 4 4 5 5
7 6 5 3 2 2 1 1 1 1 1 1 1 1 0 1 1 1 1 2 2 3 3 3 4 4 4 4 3 2 2 2 2 2 3 3 3 4 4 5 4 4 5
7 6 5 4 3 2 1 1 1 1 1 1 1 1 1 1 1 1 2 1 1 1 2 2 3 3 3 3 3 3 3 2 2 3 3 3 4 4 4 4 4 4 4
Wind_Direction
90 123 139 143 147 148 149 148 147 146 145 145 143 140 135 132 130 129 127 125 124 124 120 116 110 105 101 96 94 90 88 87 88 86 79 75 73 70 65 69 75 70 72
93 123 138 144 149 151 152 150 148 149 149 150 149 148 145 143 140 138 136 134 132 129 127 122 117 110 105 103 100 97 95 96 98 99 92 77 72 71 68 68 73 76 73
78 116 136 143 149 152 151 150 150 152 154 154 154 154 152 151 149 147 145 142 140 136 131 127 121 115 110 106 104 104 103 107 116 129 122 106 85 77 76 75 76 75 72
65 113 131 137 148 152 153 152 154 158 160 160 160 159 158 158 158 156 154 149 145 138 134 128 125 119 114 111 110 109 114 124 150 271 130 103 90 85 81 78 76 74 71
65 97 120 131 141 151 155 156 160 164 167 167 166 165 165 166 166 163 161 154 147 140 138 134 129 124 120 118 117 119 126 182 298 300 79 89 85 89 82 78 77 77 73
59 87 122 131 138 145 157 166 167 169 173 173 171 171 172 173 173 170 164 154 147 144 143 139 134 131 128 128 128 134 157 277 300 300 97 99 96 94 89 84 80 77 74
41 78 129 137 145 153 160 170 177 177 177 179 178 178 179 179 178 174 164 157 154 152 150 146 143 141 140 140 142 152 204 291 285 39 90 94 101 101 96 92 85 78 72
26 53 128 143 150 160 167 175 184 187 185 184 185 185 184 184 181 176 169 165 163 162 159 155 153 152 152 151 156 168 235 287 297 117 107 105 115 111 101 92 85 78 70
9 37 81 153 159 164 176 182 189 193 191 190 188 189 187 185 180 176 174 172 172 172 167 163 162 161 162 163 168 182 245 282 304 283 122 118 128 129 122 108 101 89 79
353 14 26 211 187 180 184 191 192 194 195 196 192 190 190 188 184 180 178 178 177 176 172 170 171 171 171 172 175 192 240 283 272 246 114 128 137 143 142 143 139 118 101
338 338 313 277 241 209 208 197 195 198 199 196 194 193 189 190 186 183 187 182 180 177 175 175 178 179 174 176 184 200 228 254 250 183 113 135 147 159 168 185 200 219 231
322 325 324 308 284 252 230 194 200 201 192 197 196 189 192 193 191 188 181 180 180 178 177 180 183 181 175 181 194 201 227 242 243 156 137 147 159 181 195 209 219 230 239
304 310 316 301 281 265 253 218 204 204 194 200 206 195 190 189 184 175 161 171 176 178 179 181 181 188 197 193 181 197 225 232 218 155 152 158 171 193 209 220 231 236 239
286 291 292 291 277 265 249 242 222 210 207 203 205 198 188 181 179 170 165 171 176 180 182 178 186 198 206 199 189 200 212 213 204 154 160 167 177 201 217 226 234 239 242
282 283 281 275 270 262 250 242 236 219 215 214 204 200 191 182 183 175 173 176 180 179 181 186 192 194 203 206 201 202 202 206 204 176 158 177 181 200 219 232 237 238 240
287 280 281 275 263 259 248 235 235 230 220 220 206 203 198 188 185 179 176 178 185 181 180 188 192 190 200 198 209 209 208 207 205 180 162 183 191 200 217 230 238 243 247
290 288 277 272 261 256 253 245 239 229 227 217 211 207 203 195 187 186 182 181 184 181 181 186 193 185 188 192 212 225 218 215 210 192 174 175 189 206 213 226 235 240 247
284 285 280 277 271 254 248 245 241 232 229 224 214 212 214 207 195 188 188 187 183 177 178 179 183 179 189 191 199 222 225 217 222 211 194 183 180 188 210 221 230 238 243
279 280 277 267 264 260 255 245 242 236 226 222 214 212 219 216 203 189 188 193 182 175 175 179 180 178 187 192 197 212 226 219 219 219 211 200 191 181 186 209 218 228 237
281 274 274 263 252 249 245 242 242 237 232 221 213 210 214 214 205 195 187 195 180 174 175 177 183 182 182 185 202 213 228 231 217 215 213 205 198 195 193 198 204 225 232
298 286 275 262 253 238 225 219 226 228 227 222 217 216 214 216 208 196 193 189 179 181 181 181 177 182 188 167 156 222 254 242 231 222 211 206 207 207 204 206 205 210 222
315 309 288 269 254 242 225 215 217 222 221 213 214 223 218 211 208 204 194 189 181 182 182 184 169 175 187 174 158 157 231 255 246 228 214 211 211 205 214 219 217 217 216
330 316 303 287 272 256 238 214 208 215 243 245 216 205 216 208 203 200 191 183 179 179 184 186 178 176 184 193 181 172 184 215 238 241 225 215 215 218 226 228 227 227 226
332 326 318 317 301 285 255 217 210 212 219 223 213 201 198 181 173 170 164 168 176 175 183 188 178 174 177 193 209 215 209 180 187 241 251 229 225 229 229 231 231 232 227
343 344 350 360 358 351 329 202 196 205 214 198 145 113 143 112 119 119 119 146 170 179 187 186 178 176 185 196 195 197 223 251 226 213 243 242 246 238 234 236 233 233 231
352 352 355 4 12 17 33 44 107 153 169 135 109 128 138 110 96 104 117 123 145 166 189 191 186 187 195 202 207 201 195 199 213 222 240 243 246 245 241 236 233 236 236